M I D A S
Marine Information and Data Acquisition System
Tripno 691 of the Zeeleeuw from 2004-04-29 07:42:40 to 2004-04-29 16:05:36
Back to CruiseResearch ActivitiesStationsMapUnderway DataData graphs

EquipmentUnitsComment
TimeDGPSUTC
LatitudeDGPSDM.mWGS84
LongitudeDGPSDM.mWGS84
HeadingGyrodeg 
SOGDGPSknotsSpeed over ground
COGDGPSdegCourse over ground
DepthEcho soundermeters200 kHz
Missing or incorrect values are displayed as -999
Navigation data collected by the RV Zeeleeuw from 2004-04-29 07:42:40 to 2004-04-29 16:05:36
                                                                                    Next 1000 lines
Time Latitude Longitude Heading SOG COG Depth
2004-04-29 07:42:47 51°14.352 2°54.546 253.1 12.5 248 11.3
2004-04-29 07:42:52 51°14.345 2°54.52 252.5 12.5 249 11.3
2004-04-29 07:42:58 51°14.337 2°54.489 252.1 12.5 248 11.2
2004-04-29 07:43:02 51°14.332 2°54.469 252.4 12.5 248 11.2
2004-04-29 07:43:07 51°14.326 2°54.443 252.4 12.5 248 11.1
2004-04-29 07:43:12 51°14.319 2°54.418 252.1 12.5 247 11.2
2004-04-29 07:43:18 51°14.31 2°54.387 251 12.6 246 11.2
2004-04-29 07:43:22 51°14.304 2°54.367 250.7 12.6 246 11.1
2004-04-29 07:43:27 51°14.297 2°54.342 250 12.5 246 11.1
2004-04-29 07:43:32 51°14.289 2°54.317 249.6 12.6 243 11.1
2004-04-29 07:43:38 51°14.281 2°54.287 249.1 12.6 245 11.1
2004-04-29 07:43:43 51°14.273 2°54.262 249.5 12.6 245 11.1
2004-04-29 07:43:48 51°14.266 2°54.237 249.4 12.6 245 11
2004-04-29 07:43:52 51°14.26 2°54.216 249.6 12.6 247 11
2004-04-29 07:43:56 51°14.254 2°54.196 250 12.5 244 11.2
2004-04-29 07:44:02 51°14.246 2°54.166 249.5 12.6 246 11
2004-04-29 07:44:07 51°14.238 2°54.141 249.8 12.5 245 11.1
2004-04-29 07:44:12 51°14.23 2°54.116 249.1 12.6 244 11
2004-04-29 07:44:18 51°14.221 2°54.086 248.7 12.6 244 11
2004-04-29 07:44:22 51°14.215 2°54.066 249.3 12.5 243 11
2004-04-29 07:44:27 51°14.207 2°54.041 248 12.6 243 11
2004-04-29 07:44:32 51°14.199 2°54.016 248.3 12.6 244 11
2004-04-29 07:44:37 51°14.192 2°53.992 248.6 12.5 243 11
2004-04-29 07:44:43 51°14.182 2°53.962 248.4 12.5 243 10.9
2004-04-29 07:44:48 51°14.175 2°53.937 248 12.7 244 11
2004-04-29 07:44:52 51°14.169 2°53.917 248.9 12.5 244 11
2004-04-29 07:44:58 51°14.16 2°53.887 248.9 12.5 244 11
2004-04-29 07:45:03 51°14.152 2°53.862 248.1 12.7 244 11.2
2004-04-29 07:45:08 51°14.145 2°53.837 248.7 12.6 246 11.1
2004-04-29 07:45:12 51°14.138 2°53.817 248.7 12.6 242 11
2004-04-29 07:45:16 51°14.133 2°53.796 249.2 12.5 247 11
2004-04-29 07:45:22 51°14.123 2°53.767 249.2 12.6 243 11.1
2004-04-29 07:45:28 51°14.115 2°53.737 249.2 12.6 247 11.1
2004-04-29 07:45:32 51°14.108 2°53.717 249.1 12.6 243 11.1
2004-04-29 07:45:38 51°14.1 2°53.686 248.9 12.7 245 11.2
2004-04-29 07:45:42 51°14.093 2°53.667 249.2 12.6 243 11.2
2004-04-29 07:45:46 51°14.088 2°53.646 249.2 12.6 246 11.2
2004-04-29 07:45:52 51°14.079 2°53.616 249.4 12.6 243 11.3
2004-04-29 07:45:56 51°14.073 2°53.596 249.2 12.6 244 11.2
2004-04-29 07:46:03 51°14.062 2°53.56 248.7 12.7 246 11.3
2004-04-29 07:46:08 51°14.054 2°53.536 249.5 12.6 244 11.3
2004-04-29 07:46:12 51°14.048 2°53.515 248.7 12.6 244 11.4
2004-04-29 07:46:18 51°14.039 2°53.486 248.9 12.6 244 11.3
2004-04-29 07:46:22 51°14.033 2°53.465 248.9 12.7 245 11.4
2004-04-29 07:46:27 51°14.025 2°53.44 248.9 12.7 244 11.3
2004-04-29 07:46:32 51°14.018 2°53.415 248.4 12.7 244 11.4
2004-04-29 07:46:38 51°14.009 2°53.385 249.4 12.6 245 11.4
2004-04-29 07:46:42 51°14.003 2°53.365 248.8 12.6 245 11.4
2004-04-29 07:46:47 51°13.995 2°53.34 249.3 12.6 245 11.5
2004-04-29 07:46:52 51°13.988 2°53.315 249.6 12.6 245 11.6
2004-04-29 07:46:58 51°13.978 2°53.284 248.6 12.7 244 11.6
2004-04-29 07:47:02 51°13.972 2°53.264 248.9 12.6 245 11.6
2004-04-29 07:47:07 51°13.965 2°53.239 249.9 12.6 245 11.5
2004-04-29 07:47:12 51°13.957 2°53.214 248.9 12.6 246 11.7
2004-04-29 07:47:18 51°13.948 2°53.184 250.2 12.6 246 11.6
2004-04-29 07:47:22 51°13.943 2°53.163 250.4 12.7 245 11.6
2004-04-29 07:47:27 51°13.935 2°53.138 250.3 12.7 245 11.7
2004-04-29 07:47:32 51°13.928 2°53.112 249.6 12.6 246 11.7
2004-04-29 07:47:37 51°13.92 2°53.088 250.3 12.6 246 11.8
2004-04-29 07:47:42 51°13.913 2°53.062 249.9 12.7 246 11.9
2004-04-29 07:47:47 51°13.906 2°53.037 250.1 12.6 245 11.9
2004-04-29 07:47:52 51°13.898 2°53.012 250.8 12.6 245 12
2004-04-29 07:47:58 51°13.89 2°52.981 250 12.6 244 12
2004-04-29 07:48:02 51°13.884 2°52.961 249.9 12.7 245 12
2004-04-29 07:48:07 51°13.876 2°52.935 250.4 12.6 246 12.1
2004-04-29 07:48:12 51°13.869 2°52.91 249.9 12.6 244 12.1
2004-04-29 07:48:18 51°13.86 2°52.88 249.5 12.7 245 12.1
2004-04-29 07:48:22 51°13.854 2°52.859 250.2 12.7 246 12.1
2004-04-29 07:48:28 51°13.845 2°52.829 250.3 12.7 245 12.1
2004-04-29 07:48:32 51°13.839 2°52.808 250.3 12.6 246 12.2
2004-04-29 07:48:38 51°13.831 2°52.777 250.3 12.7 246 12.2
2004-04-29 07:48:42 51°13.825 2°52.757 250.5 12.6 245 12.2
2004-04-29 07:48:48 51°13.816 2°52.726 250.3 12.7 245 12.3
2004-04-29 07:48:52 51°13.811 2°52.706 250.1 12.7 245 12.2
2004-04-29 07:48:58 51°13.802 2°52.675 250.3 12.7 245 12.2
2004-04-29 07:49:02 51°13.796 2°52.655 250.4 12.6 245 12.2
2004-04-29 07:49:07 51°13.789 2°52.629 250 12.7 245 12.3
2004-04-29 07:49:12 51°13.781 2°52.604 250.4 12.6 246 12.2
2004-04-29 07:49:18 51°13.772 2°52.573 249.5 12.6 246 12.2
2004-04-29 07:49:22 51°13.766 2°52.554 249.5 12.6 243 12.3
2004-04-29 07:49:27 51°13.758 2°52.528 248.4 12.7 244 12.3
2004-04-29 07:49:32 51°13.75 2°52.503 248.6 12.7 243 12.3
2004-04-29 07:49:38 51°13.741 2°52.473 248.4 12.6 244 12.4
2004-04-29 07:49:42 51°13.734 2°52.454 247.9 12.6 242 12.4
2004-04-29 07:49:47 51°13.727 2°52.428 247.9 12.7 244 12.4
2004-04-29 07:49:52 51°13.719 2°52.404 248.2 12.6 243 12.5
2004-04-29 07:49:58 51°13.709 2°52.374 247.5 12.6 243 12.5
2004-04-29 07:50:02 51°13.702 2°52.354 247.1 12.7 242 12.5
2004-04-29 07:50:07 51°13.695 2°52.329 247.9 12.7 243 12.5
2004-04-29 07:50:12 51°13.686 2°52.305 247.5 12.7 242 12.5
2004-04-29 07:50:16 51°13.68 2°52.284 247.9 12.7 242 12.5
2004-04-29 07:50:22 51°13.671 2°52.254 247.8 12.8 243 12.4
2004-04-29 07:50:26 51°13.664 2°52.234 248.2 12.7 244 12.5
2004-04-29 07:50:32 51°13.655 2°52.204 248.4 12.7 243 12.5
2004-04-29 07:50:38 51°13.645 2°52.175 248.3 12.6 243 12.6
2004-04-29 07:50:42 51°13.639 2°52.155 248.2 12.6 242 12.5
2004-04-29 07:50:48 51°13.629 2°52.125 247.5 12.7 244 12.5
2004-04-29 07:50:52 51°13.623 2°52.105 247.8 12.6 243 12.6
2004-04-29 07:50:58 51°13.614 2°52.075 248.2 12.7 243 12.5
2004-04-29 07:51:02 51°13.607 2°52.056 248.4 12.6 242 12.6
2004-04-29 07:51:08 51°13.597 2°52.026 247.8 12.7 243 12.5
2004-04-29 07:51:12 51°13.591 2°52.006 247.5 12.8 243 12.5
2004-04-29 07:51:18 51°13.582 2°51.975 248.9 12.6 245 12.5
2004-04-29 07:51:22 51°13.575 2°51.956 248.8 12.7 242 12.6
2004-04-29 07:51:26 51°13.569 2°51.935 248 12.7 246 12.6
2004-04-29 07:51:32 51°13.559 2°51.906 248.4 12.6 241 12.6
2004-04-29 07:51:38 51°13.55 2°51.876 248.1 12.7 244 12.6
2004-04-29 07:51:42 51°13.544 2°51.856 248.5 12.6 243 12.6
2004-04-29 07:51:47 51°13.536 2°51.831 248 12.6 243 12.6
2004-04-29 07:51:52 51°13.528 2°51.806 248.3 12.6 243 12.6
2004-04-29 07:51:58 51°13.518 2°51.777 248.1 12.6 243 12.6
2004-04-29 07:52:02 51°13.512 2°51.757 247.8 12.6 243 12.6
2004-04-29 07:52:07 51°13.504 2°51.732 247.9 12.6 243 12.6
2004-04-29 07:52:12 51°13.496 2°51.707 247.9 12.7 244 12.7
2004-04-29 07:52:17 51°13.488 2°51.682 248.5 12.5 244 12.7
2004-04-29 07:52:22 51°13.481 2°51.657 248.9 12.6 243 12.7
2004-04-29 07:52:28 51°13.472 2°51.627 248.4 12.6 244 12.8
2004-04-29 07:52:32 51°13.465 2°51.608 248.7 12.5 241 12.8
2004-04-29 07:52:37 51°13.457 2°51.583 247.2 12.6 243 12.8
2004-04-29 07:52:43 51°13.446 2°51.554 247.4 12.6 240 12.8
2004-04-29 07:52:47 51°13.44 2°51.534 246.6 12.6 243 12.8
2004-04-29 07:52:52 51°13.432 2°51.51 246.6 12.6 243 12.9
2004-04-29 07:52:58 51°13.422 2°51.48 246.8 12.6 243 12.8
2004-04-29 07:53:02 51°13.415 2°51.461 246.7 12.6 241 12.9
2004-04-29 07:53:07 51°13.407 2°51.437 246.6 12.5 241 12.8
2004-04-29 07:53:12 51°13.398 2°51.413 245.4 12.5 239 12.8
2004-04-29 07:53:18 51°13.388 2°51.383 246 12.6 241 12.8
2004-04-29 07:53:22 51°13.381 2°51.364 245.8 12.6 241 12.8
2004-04-29 07:53:26 51°13.375 2°51.345 246.2 12.5 241 12.9
2004-04-29 07:53:32 51°13.364 2°51.315 245.3 12.6 241 12.9
2004-04-29 07:53:38 51°13.354 2°51.286 246 12.5 242 12.9
2004-04-29 07:53:42 51°13.347 2°51.267 246.3 12.5 240 12.9
2004-04-29 07:53:47 51°13.339 2°51.243 245.3 12.6 241 13
2004-04-29 07:53:52 51°13.33 2°51.219 246.3 12.6 241 12.9
2004-04-29 07:53:58 51°13.32 2°51.189 246.1 12.6 241 12.9
2004-04-29 07:54:02 51°13.314 2°51.169 246.1 12.6 243 13
2004-04-29 07:54:08 51°13.304 2°51.14 247.6 12.5 242 13
2004-04-29 07:54:12 51°13.298 2°51.12 247.4 12.6 244 13
2004-04-29 07:54:18 51°13.288 2°51.09 248.4 12.6 243 12.9
2004-04-29 07:54:22 51°13.282 2°51.07 248.5 12.6 243 13.1
2004-04-29 07:54:27 51°13.274 2°51.046 247.2 12.6 241 13.1
2004-04-29 07:54:32 51°13.266 2°51.021 247.1 12.7 242 13.1
2004-04-29 07:54:38 51°13.256 2°50.992 247.4 12.6 242 13.1
2004-04-29 07:54:42 51°13.249 2°50.972 246.5 12.6 241 13.1
2004-04-29 07:54:48 51°13.239 2°50.943 246 12.7 241 13.1
2004-04-29 07:54:52 51°13.232 2°50.924 246 12.6 242 13.1
2004-04-29 07:54:56 51°13.225 2°50.904 245.5 12.7 240 13.1
2004-04-29 07:55:02 51°13.215 2°50.875 246.1 12.6 240 13
2004-04-29 07:55:08 51°13.205 2°50.845 246.1 12.7 240 13.1
2004-04-29 07:55:12 51°13.198 2°50.826 246 12.6 241 13.1
2004-04-29 07:55:18 51°13.187 2°50.796 245.6 12.7 240 13.1
2004-04-29 07:55:22 51°13.181 2°50.777 245.4 12.6 242 13.1
2004-04-29 07:55:28 51°13.17 2°50.748 246 12.6 240 13.1
2004-04-29 07:55:32 51°13.164 2°50.728 245.7 12.7 241 13.1
2004-04-29 07:55:38 51°13.154 2°50.698 246.7 12.6 242 13.1
2004-04-29 07:55:42 51°13.146 2°50.679 246.6 12.6 240 13.2
2004-04-29 07:55:48 51°13.137 2°50.649 245.8 12.6 240 13.2
2004-04-29 07:55:52 51°13.13 2°50.63 246.4 12.7 241 13.1
2004-04-29 07:55:58 51°13.119 2°50.601 246.3 12.6 242 13.2
2004-04-29 07:56:02 51°13.112 2°50.581 245.8 12.7 240 13.2
2004-04-29 07:56:07 51°13.104 2°50.556 246.2 12.7 240 13.2
2004-04-29 07:56:12 51°13.095 2°50.532 246.1 12.7 240 13.2
2004-04-29 07:56:18 51°13.085 2°50.502 245.8 12.7 242 13.2
2004-04-29 07:56:22 51°13.078 2°50.483 246 12.7 241 13.2
2004-04-29 07:56:27 51°13.07 2°50.458 245.8 12.7 242 13.3
2004-04-29 07:56:32 51°13.062 2°50.433 246.1 12.7 241 13.2
2004-04-29 07:56:38 51°13.052 2°50.403 246.5 12.7 242 13.3
2004-04-29 07:56:42 51°13.045 2°50.384 247 12.6 241 13.3
2004-04-29 07:56:48 51°13.035 2°50.354 246 12.8 241 13.3
2004-04-29 07:56:52 51°13.028 2°50.335 246.4 12.7 241 13.3
2004-04-29 07:56:58 51°13.018 2°50.305 246.3 12.7 241 13.3
2004-04-29 07:57:02 51°13.011 2°50.285 246.2 12.7 241 13.3
2004-04-29 07:57:08 51°13.001 2°50.256 246.1 12.7 242 13.3
2004-04-29 07:57:12 51°12.994 2°50.236 246.7 12.6 241 13.2
2004-04-29 07:57:17 51°12.986 2°50.212 246.3 12.7 241 13.3
2004-04-29 07:57:22 51°12.977 2°50.187 245.8 12.7 241 13.3
2004-04-29 07:57:27 51°12.969 2°50.163 246 12.6 241 13.4
2004-04-29 07:57:32 51°12.96 2°50.138 246 12.7 241 13.3
2004-04-29 07:57:38 51°12.95 2°50.108 246 12.7 241 13.3
2004-04-29 07:57:42 51°12.943 2°50.088 246.7 12.7 242 13.4
2004-04-29 07:57:46 51°12.937 2°50.069 247.2 12.6 243 13.4
2004-04-29 07:57:52 51°12.927 2°50.039 246.6 12.7 241 13.4
2004-04-29 07:57:58 51°12.917 2°50.009 246.9 12.7 244 13.4
2004-04-29 07:58:02 51°12.911 2°49.989 247.5 12.7 242 13.4
2004-04-29 07:58:08 51°12.901 2°49.959 247.5 12.7 243 13.4
2004-04-29 07:58:12 51°12.894 2°49.94 247.5 12.7 242 13.4
2004-04-29 07:58:18 51°12.885 2°49.91 246.9 12.7 243 13.4
2004-04-29 07:58:22 51°12.878 2°49.89 247.5 12.7 241 13.5
2004-04-29 07:58:27 51°12.87 2°49.865 246.5 12.8 242 13.5
2004-04-29 07:58:32 51°12.861 2°49.84 247.2 12.7 242 13.5
2004-04-29 07:58:38 51°12.851 2°49.811 246.6 12.7 242 13.5
2004-04-29 07:58:42 51°12.845 2°49.791 246.7 12.7 242 13.6
2004-04-29 07:58:48 51°12.834 2°49.761 246.6 12.7 241 13.5
2004-04-29 07:58:52 51°12.827 2°49.742 246 12.7 240 13.5
2004-04-29 07:58:58 51°12.817 2°49.712 245.9 12.7 241 13.5
2004-04-29 07:59:02 51°12.81 2°49.693 245.9 12.8 241 13.5
2004-04-29 07:59:07 51°12.802 2°49.668 246.1 12.7 242 13.6
2004-04-29 07:59:12 51°12.793 2°49.644 246.4 12.6 241 13.5
2004-04-29 07:59:18 51°12.784 2°49.614 245.9 12.8 243 13.5
2004-04-29 07:59:22 51°12.777 2°49.594 246.7 12.6 242 13.5
2004-04-29 07:59:27 51°12.768 2°49.569 246.5 12.7 241 13.6
2004-04-29 07:59:32 51°12.76 2°49.545 246.1 12.7 241 13.5
2004-04-29 07:59:38 51°12.75 2°49.515 246.1 12.7 241 13.5
2004-04-29 07:59:42 51°12.743 2°49.496 246 12.7 241 13.5
2004-04-29 07:59:47 51°12.735 2°49.471 245.9 12.8 242 13.6
2004-04-29 07:59:52 51°12.726 2°49.446 246.4 12.7 242 13.6
2004-04-29 07:59:58 51°12.717 2°49.416 246.8 12.8 242 13.6
2004-04-29 08:00:03 51°12.708 2°49.391 247.5 12.7 243 13.6
2004-04-29 08:00:08 51°12.7 2°49.366 247.4 12.8 242 13.6
2004-04-29 08:00:12 51°12.694 2°49.346 247 12.8 242 13.6
2004-04-29 08:00:18 51°12.684 2°49.315 247.4 12.8 243 13.6
2004-04-29 08:00:20 51°12.681 2°49.305 246.9 12.8 243 13.7
2004-04-29 08:00:27 51°12.67 2°49.27 247.6 12.8 243 13.7
2004-04-29 08:00:32 51°12.661 2°49.245 247.1 12.8 242 13.7
2004-04-29 08:00:37 51°12.654 2°49.22 247.6 12.8 244 13.7
2004-04-29 08:00:42 51°12.645 2°49.195 247.2 12.8 242 13.7
2004-04-29 08:00:47 51°12.637 2°49.17 247.2 12.8 244 13.7
2004-04-29 08:00:52 51°12.629 2°49.145 247.3 12.8 242 13.7
2004-04-29 08:00:58 51°12.619 2°49.115 247.6 12.7 243 13.8
2004-04-29 08:01:02 51°12.613 2°49.094 247.2 12.8 243 13.7
2004-04-29 08:01:08 51°12.603 2°49.065 247.5 12.8 243 13.8
2004-04-29 08:01:12 51°12.597 2°49.045 247.3 12.8 242 13.8
2004-04-29 08:01:17 51°12.589 2°49.019 246.9 12.8 244 13.8
2004-04-29 08:01:22 51°12.581 2°48.995 247.5 12.8 243 13.8
2004-04-29 08:01:28 51°12.571 2°48.965 247.4 12.7 242 13.8
2004-04-29 08:01:32 51°12.564 2°48.945 247 12.8 242 13.8
2004-04-29 08:01:38 51°12.555 2°48.915 246.5 12.8 243 13.9
2004-04-29 08:01:42 51°12.548 2°48.894 247.3 12.7 244 13.8
2004-04-29 08:01:48 51°12.539 2°48.864 247.9 12.8 243 13.9
2004-04-29 08:01:52 51°12.533 2°48.843 248.2 12.8 245 13.8
2004-04-29 08:01:57 51°12.525 2°48.818 248.7 12.8 244 13.9
2004-04-29 08:02:03 51°12.516 2°48.788 248.4 12.8 244 13.9
2004-04-29 08:02:08 51°12.508 2°48.762 248.2 12.7 244 13.9
2004-04-29 08:02:12 51°12.502 2°48.742 248.2 12.8 244 13.9
2004-04-29 08:02:18 51°12.493 2°48.711 248.2 12.9 244 13.9
2004-04-29 08:02:22 51°12.487 2°48.691 248.8 12.8 245 14
2004-04-29 08:02:27 51°12.479 2°48.666 248.6 12.8 244 14
2004-04-29 08:02:32 51°12.471 2°48.64 248.6 12.8 245 14
2004-04-29 08:02:37 51°12.464 2°48.614 249.3 12.8 246 14
2004-04-29 08:02:42 51°12.457 2°48.588 249.8 12.8 245 14
2004-04-29 08:02:48 51°12.448 2°48.557 249.6 12.8 246 14
2004-04-29 08:02:52 51°12.442 2°48.537 250.2 12.8 245 14
2004-04-29 08:02:58 51°12.434 2°48.505 250.4 12.8 246 14
2004-04-29 08:03:02 51°12.428 2°48.485 251.1 12.8 246 14
2004-04-29 08:03:06 51°12.422 2°48.464 250.6 12.8 246 14.1
2004-04-29 08:03:12 51°12.414 2°48.433 250.4 12.8 247 14.1
2004-04-29 08:03:18 51°12.405 2°48.402 250.7 12.7 247 14.1
2004-04-29 08:03:23 51°12.399 2°48.376 250.1 12.7 245 14.1
2004-04-29 08:03:27 51°12.392 2°48.356 250.8 12.7 245 14.1
2004-04-29 08:03:32 51°12.386 2°48.33 250.5 12.8 247 14.1
2004-04-29 08:03:37 51°12.378 2°48.304 250.7 12.8 245 14.1
2004-04-29 08:03:42 51°12.371 2°48.278 250 12.8 247 14.1
2004-04-29 08:03:47 51°12.364 2°48.252 250.2 12.8 245 14.2
2004-04-29 08:03:52 51°12.357 2°48.226 250 12.8 247 14.2
2004-04-29 08:03:58 51°12.348 2°48.195 250.3 12.8 246 14.2
2004-04-29 08:04:02 51°12.343 2°48.174 250.4 12.8 248 14.2
2004-04-29 08:04:08 51°12.334 2°48.143 251.1 12.8 246 14.2
2004-04-29 08:04:12 51°12.329 2°48.122 250.2 12.8 246 14.2
2004-04-29 08:04:18 51°12.32 2°48.091 251.1 12.8 247 14.2
2004-04-29 08:04:22 51°12.314 2°48.07 250.2 12.9 247 14.2
2004-04-29 08:04:28 51°12.306 2°48.039 250.3 12.8 246 14.3
2004-04-29 08:04:32 51°12.3 2°48.018 250.3 12.9 247 14.3
2004-04-29 08:04:38 51°12.291 2°47.987 250 12.8 246 14.3
2004-04-29 08:04:42 51°12.285 2°47.967 249.6 12.9 246 14.3
2004-04-29 08:04:47 51°12.279 2°47.941 250.2 12.8 247 14.3
2004-04-29 08:04:52 51°12.271 2°47.915 250.1 12.8 246 14.3
2004-04-29 08:04:58 51°12.263 2°47.884 249.6 12.9 247 14.4
2004-04-29 08:05:03 51°12.255 2°47.858 250.3 12.8 244 14.3
2004-04-29 08:05:08 51°12.249 2°47.832 249.6 12.9 247 14.3
2004-04-29 08:05:12 51°12.242 2°47.811 250.7 12.8 245 14.3
2004-04-29 08:05:18 51°12.234 2°47.78 249.5 12.9 246 14.4
2004-04-29 08:05:22 51°12.228 2°47.759 250.7 12.8 246 14.4
2004-04-29 08:05:27 51°12.221 2°47.733 250 12.8 245 14.4
2004-04-29 08:05:32 51°12.214 2°47.707 250 12.9 247 14.4
2004-04-29 08:05:37 51°12.207 2°47.681 250.2 12.9 246 14.5
2004-04-29 08:05:42 51°12.2 2°47.655 250.9 12.8 247 14.5
2004-04-29 08:05:48 51°12.191 2°47.623 250.3 12.9 246 14.4
2004-04-29 08:05:52 51°12.186 2°47.603 250.5 12.9 247 14.5
2004-04-29 08:05:58 51°12.177 2°47.571 250.8 12.9 246 14.5
2004-04-29 08:06:02 51°12.171 2°47.55 250.2 12.9 246 14.5
2004-04-29 08:06:06 51°12.166 2°47.529 250.1 12.9 247 14.6
2004-04-29 08:06:12 51°12.157 2°47.498 250.6 12.8 247 14.5
2004-04-29 08:06:18 51°12.149 2°47.467 250.1 12.9 246 14.6
2004-04-29 08:06:23 51°12.142 2°47.441 250.4 12.9 247 14.5
2004-04-29 08:06:27 51°12.136 2°47.42 250.2 12.9 247 14.5
2004-04-29 08:06:32 51°12.129 2°47.394 250.3 12.9 246 14.5
2004-04-29 08:06:37 51°12.122 2°47.367 250.5 12.9 247 14.5
2004-04-29 08:06:43 51°12.114 2°47.336 250.4 13 247 14.5
2004-04-29 08:06:47 51°12.108 2°47.315 250.6 12.9 247 14.6
2004-04-29 08:06:52 51°12.101 2°47.289 250.6 12.8 246 14.5
2004-04-29 08:06:58 51°12.093 2°47.257 250 12.9 247 14.5
2004-04-29 08:07:02 51°12.087 2°47.237 250.5 12.8 247 14.5
2004-04-29 08:07:07 51°12.079 2°47.211 250.4 12.8 246 14.6
2004-04-29 08:07:12 51°12.072 2°47.185 249.6 12.9 247 14.5
2004-04-29 08:07:17 51°12.065 2°47.159 249.9 12.9 246 14.6
2004-04-29 08:07:23 51°12.057 2°47.127 250.7 12.9 247 14.6
2004-04-29 08:07:28 51°12.05 2°47.101 250.7 12.9 247 14.6
2004-04-29 08:07:32 51°12.044 2°47.08 250.7 12.9 246 14.6
2004-04-29 08:07:38 51°12.036 2°47.049 250.4 12.9 247 14.6
2004-04-29 08:07:42 51°12.03 2°47.028 250.1 12.9 247 14.6
2004-04-29 08:07:48 51°12.022 2°46.997 250.6 12.8 247 14.7
2004-04-29 08:07:52 51°12.016 2°46.976 250.5 12.8 246 14.5
2004-04-29 08:07:57 51°12.009 2°46.95 250.2 12.9 247 14.6
2004-04-29 08:08:03 51°12 2°46.919 250.5 12.8 246 14.6
2004-04-29 08:08:08 51°11.993 2°46.893 249.8 12.9 246 14.6
2004-04-29 08:08:12 51°11.988 2°46.872 250 12.9 247 14.6
2004-04-29 08:08:16 51°11.982 2°46.851 251.1 12.7 246 14.7
2004-04-29 08:08:22 51°11.973 2°46.82 250 12.9 247 14.7
2004-04-29 08:08:27 51°11.966 2°46.794 250.4 12.9 247 14.7
2004-04-29 08:08:32 51°11.959 2°46.768 250.4 12.8 246 14.7
2004-04-29 08:08:38 51°11.95 2°46.736 249.9 12.9 247 14.7
2004-04-29 08:08:42 51°11.945 2°46.715 250.5 12.9 247 14.7
2004-04-29 08:08:47 51°11.938 2°46.689 250.5 13 247 14.7
2004-04-29 08:08:52 51°11.931 2°46.663 250.4 13 247 14.7
2004-04-29 08:08:58 51°11.922 2°46.632 250.9 12.8 247 14.7
2004-04-29 08:09:02 51°11.917 2°46.611 250.5 12.9 247 14.7
2004-04-29 08:09:07 51°11.91 2°46.584 250.4 12.9 246 14.7
2004-04-29 08:09:12 51°11.902 2°46.558 250.4 12.9 247 14.7
2004-04-29 08:09:18 51°11.894 2°46.527 250.3 12.9 247 14.7
2004-04-29 08:09:22 51°11.888 2°46.506 250.2 12.9 246 14.7
2004-04-29 08:09:27 51°11.881 2°46.48 250.1 12.9 248 14.7
2004-04-29 08:09:32 51°11.874 2°46.454 250.6 12.8 247 14.7
2004-04-29 08:09:38 51°11.866 2°46.422 250.4 12.9 247 14.7
2004-04-29 08:09:42 51°11.86 2°46.402 250.2 12.9 247 14.7
2004-04-29 08:09:48 51°11.851 2°46.37 250.5 12.9 247 14.8
2004-04-29 08:09:51 51°11.847 2°46.355 250.1 12.9 246 14.8
2004-04-29 08:09:57 51°11.838 2°46.323 249.6 12.9 246 14.8
2004-04-29 08:10:02 51°11.831 2°46.297 249.8 13 247 14.7
2004-04-29 08:10:08 51°11.823 2°46.265 250.4 13 247 14.8
2004-04-29 08:10:12 51°11.817 2°46.245 251.2 12.9 246 14.7
2004-04-29 08:10:18 51°11.809 2°46.213 250.5 13 248 14.7
2004-04-29 08:10:23 51°11.802 2°46.186 250.9 13 247 14.6
2004-04-29 08:10:28 51°11.795 2°46.16 250.9 13 247 14.7
2004-04-29 08:10:32 51°11.79 2°46.139 251.1 12.9 248 14.7
2004-04-29 08:10:36 51°11.784 2°46.118 251.1 13 247 14.7
2004-04-29 08:10:42 51°11.776 2°46.086 251.6 12.9 248 14.6
2004-04-29 08:10:48 51°11.768 2°46.054 251.3 13 247 14.7
2004-04-29 08:10:52 51°11.763 2°46.032 250.9 13 248 14.7
2004-04-29 08:10:58 51°11.754 2°46.001 252.1 13 248 14.7
2004-04-29 08:11:02 51°11.749 2°45.979 251.8 12.9 248 14.7
2004-04-29 08:11:07 51°11.742 2°45.953 251.6 12.9 248 14.7
2004-04-29 08:11:12 51°11.735 2°45.927 251.4 13 247 14.7
2004-04-29 08:11:18 51°11.727 2°45.895 251.1 12.9 248 14.7
2004-04-29 08:11:22 51°11.721 2°45.874 251 13 247 14.7
2004-04-29 08:11:27 51°11.715 2°45.847 251.1 13 248 14.7
2004-04-29 08:11:32 51°11.708 2°45.821 251.4 12.9 247 14.7
2004-04-29 08:11:37 51°11.701 2°45.795 251.1 13 247 14.7
2004-04-29 08:11:43 51°11.693 2°45.763 251.1 12.9 248 14.7
2004-04-29 08:11:48 51°11.686 2°45.736 251.3 13 247 14.7
2004-04-29 08:11:52 51°11.681 2°45.715 251.5 13 249 14.7
2004-04-29 08:11:58 51°11.673 2°45.683 251.4 12.9 247 14.7
2004-04-29 08:12:01 51°11.669 2°45.667 251.1 13 248 14.7
2004-04-29 08:12:08 51°11.66 2°45.63 251.7 12.9 248 14.7
2004-04-29 08:12:12 51°11.654 2°45.609 252.1 12.9 247 14.7
2004-04-29 08:12:18 51°11.646 2°45.577 251.2 12.9 247 14.7
2004-04-29 08:12:21 51°11.642 2°45.562 251.8 12.9 248 14.6
2004-04-29 08:12:28 51°11.633 2°45.525 252.2 12.8 248 14.7
2004-04-29 08:12:32 51°11.627 2°45.504 251.4 12.9 247 14.6
2004-04-29 08:12:38 51°11.619 2°45.472 251.4 12.9 248 14.6
2004-04-29 08:12:42 51°11.613 2°45.451 250.9 12.9 247 14.6
2004-04-29 08:12:48 51°11.605 2°45.419 250.7 12.9 248 14.6
2004-04-29 08:12:52 51°11.6 2°45.398 251 13 248 14.6
2004-04-29 08:12:58 51°11.592 2°45.366 251.5 12.9 248 14.7
2004-04-29 08:13:02 51°11.587 2°45.345 251.6 12.9 248 14.6
2004-04-29 08:13:07 51°11.58 2°45.318 251.2 13 247 14.6
2004-04-29 08:13:12 51°11.573 2°45.292 251.8 12.9 249 14.7
2004-04-29 08:13:18 51°11.565 2°45.261 251 12.9 246 14.6
2004-04-29 08:13:22 51°11.56 2°45.239 251.3 12.9 249 14.6
2004-04-29 08:13:28 51°11.551 2°45.208 251.8 12.9 248 14.6
2004-04-29 08:13:32 51°11.546 2°45.187 251.1 12.9 248 14.6
2004-04-29 08:13:38 51°11.538 2°45.155 251.4 12.9 248 14.6
2004-04-29 08:13:42 51°11.533 2°45.134 251.7 12.9 248 14.5
2004-04-29 08:13:47 51°11.526 2°45.108 251.4 12.9 248 14.6
2004-04-29 08:13:52 51°11.519 2°45.081 251.3 12.9 247 14.6
2004-04-29 08:13:58 51°11.511 2°45.049 251.1 13 249 14.5
2004-04-29 08:14:02 51°11.506 2°45.028 251.8 12.9 247 14.5
2004-04-29 08:14:07 51°11.499 2°45.001 251.2 12.9 248 14.5
2004-04-29 08:14:12 51°11.493 2°44.975 251.2 12.9 248 14.6
2004-04-29 08:14:18 51°11.484 2°44.943 251.1 12.9 248 14.5
2004-04-29 08:14:22 51°11.479 2°44.922 251.3 12.9 248 14.5
2004-04-29 08:14:27 51°11.472 2°44.896 251.1 12.9 247 14.5
2004-04-29 08:14:32 51°11.466 2°44.87 251.3 12.9 248 14.5
2004-04-29 08:14:38 51°11.457 2°44.838 251.2 12.9 248 14.5
2004-04-29 08:14:42 51°11.452 2°44.817 251.1 12.9 248 14.4
2004-04-29 08:14:47 51°11.445 2°44.791 251.3 12.9 248 14.4
2004-04-29 08:14:52 51°11.439 2°44.764 251 12.9 247 14.5
2004-04-29 08:14:58 51°11.43 2°44.733 251.1 12.9 249 14.4
2004-04-29 08:15:03 51°11.424 2°44.706 251.2 12.9 247 14.4
2004-04-29 08:15:07 51°11.418 2°44.685 251.7 12.9 248 14.4
2004-04-29 08:15:12 51°11.412 2°44.659 251 12.9 247 14.4
2004-04-29 08:15:17 51°11.405 2°44.632 251.1 12.9 249 14.5
2004-04-29 08:15:23 51°11.397 2°44.601 251.7 12.9 249 14.5
2004-04-29 08:15:27 51°11.392 2°44.58 251.8 12.9 248 14.5
2004-04-29 08:15:32 51°11.385 2°44.553 251.7 12.8 249 14.4
2004-04-29 08:15:38 51°11.377 2°44.522 250.6 12.9 246 14.5
2004-04-29 08:15:43 51°11.37 2°44.495 250.4 13 249 14.5
2004-04-29 08:15:48 51°11.364 2°44.469 251.2 13 248 14.5
2004-04-29 08:15:52 51°11.358 2°44.448 251.6 12.8 248 14.5
2004-04-29 08:15:58 51°11.35 2°44.416 250.9 12.9 247 14.4
2004-04-29 08:16:02 51°11.345 2°44.395 251.2 13 249 14.4
2004-04-29 08:16:07 51°11.338 2°44.368 251.8 12.9 248 14.4
2004-04-29 08:16:12 51°11.331 2°44.342 252.1 12.8 249 14.4
2004-04-29 08:16:18 51°11.323 2°44.311 251.1 12.9 247 14.4
2004-04-29 08:16:22 51°11.318 2°44.29 251.4 12.9 248 14.4
2004-04-29 08:16:27 51°11.311 2°44.264 251.5 12.8 248 14.4
2004-04-29 08:16:32 51°11.304 2°44.237 251.4 12.8 248 14.4
2004-04-29 08:16:38 51°11.297 2°44.206 251.6 12.8 249 14.4
2004-04-29 08:16:40 51°11.294 2°44.196 250.9 12.9 246 14.4
2004-04-29 08:16:48 51°11.283 2°44.154 251.1 12.8 249 14.4
2004-04-29 08:16:52 51°11.277 2°44.133 251.2 12.8 246 14.4
2004-04-29 08:16:57 51°11.271 2°44.107 250.4 12.8 247 14.4
2004-04-29 08:17:03 51°11.262 2°44.076 251.6 12.8 247 14.4
2004-04-29 08:17:07 51°11.257 2°44.055 251.6 12.8 248 14.4
2004-04-29 08:17:12 51°11.25 2°44.029 251.4 12.8 247 14.4
2004-04-29 08:17:18 51°11.242 2°43.997 251.1 12.8 248 14.4
2004-04-29 08:17:23 51°11.235 2°43.971 251 12.9 247 14.3
2004-04-29 08:17:27 51°11.23 2°43.95 250.9 12.9 249 14.4
2004-04-29 08:17:32 51°11.223 2°43.924 251.4 12.9 248 14.3
2004-04-29 08:17:38 51°11.216 2°43.892 252.5 12.9 250 14.4
2004-04-29 08:17:42 51°11.211 2°43.871 253.1 12.8 249 14.4
2004-04-29 08:17:47 51°11.205 2°43.845 252.5 12.8 249 14.4
2004-04-29 08:17:52 51°11.198 2°43.818 252.2 12.8 248 14.3
2004-04-29 08:17:58 51°11.19 2°43.787 251.9 12.9 248 14.3
2004-04-29 08:18:02 51°11.185 2°43.765 251.8 12.9 248 14.3
2004-04-29 08:18:07 51°11.179 2°43.739 252.2 12.8 249 14.3
2004-04-29 08:18:12 51°11.172 2°43.712 252 12.9 248 14.3
2004-04-29 08:18:18 51°11.165 2°43.68 252.5 12.9 250 14.3
2004-04-29 08:18:22 51°11.16 2°43.659 252.6 13 250 14.3
2004-04-29 08:18:28 51°11.152 2°43.627 252.8 12.9 249 14.4
2004-04-29 08:18:32 51°11.146 2°43.606 252.6 12.8 248 14.3
2004-04-29 08:18:38 51°11.139 2°43.574 251.8 13 249 14.3
2004-04-29 08:18:42 51°11.134 2°43.552 252.4 12.9 249 14.3
2004-04-29 08:18:47 51°11.127 2°43.526 252.6 12.9 249 14.3
2004-04-29 08:18:52 51°11.121 2°43.499 252.1 12.9 249 14.2
2004-04-29 08:18:58 51°11.113 2°43.467 252.6 12.9 248 14.3
2004-04-29 08:19:03 51°11.107 2°43.441 252.4 12.8 250 14.3
2004-04-29 08:19:08 51°11.1 2°43.415 251.8 12.8 247 14.3
2004-04-29 08:19:12 51°11.095 2°43.393 251.4 13 249 14.3
2004-04-29 08:19:18 51°11.087 2°43.361 252.3 12.9 249 14.3
2004-04-29 08:19:22 51°11.082 2°43.34 252.7 12.8 249 14.3
2004-04-29 08:19:27 51°11.075 2°43.314 252 12.9 248 14.3
2004-04-29 08:19:32 51°11.069 2°43.287 252 13 249 14.3
2004-04-29 08:19:37 51°11.063 2°43.26 252.8 12.9 249 14.3
2004-04-29 08:19:42 51°11.057 2°43.234 252.6 12.9 249 14.3
2004-04-29 08:19:48 51°11.049 2°43.202 252.5 12.9 249 14.3
2004-04-29 08:19:52 51°11.044 2°43.181 252.1 12.9 250 14.3
2004-04-29 08:19:58 51°11.036 2°43.149 252.3 12.9 249 14.3
2004-04-29 08:20:02 51°11.031 2°43.128 252.5 13 250 14.3
2004-04-29 08:20:08 51°11.023 2°43.096 252.5 12.9 248 14.3
2004-04-29 08:20:12 51°11.018 2°43.075 252.1 12.9 249 14.3
2004-04-29 08:20:18 51°11.01 2°43.043 251.8 12.9 248 14.3
2004-04-29 08:20:23 51°11.004 2°43.016 252.2 13 249 14.3
2004-04-29 08:20:27 51°10.998 2°42.995 252.3 13 248 14.3
2004-04-29 08:20:32 51°10.992 2°42.968 252.1 13 249 14.4
2004-04-29 08:20:37 51°10.986 2°42.941 252.5 12.9 249 14.3
2004-04-29 08:20:43 51°10.978 2°42.909 252.4 12.9 249 14.3
2004-04-29 08:20:47 51°10.973 2°42.888 252.7 13 249 14.4
2004-04-29 08:20:52 51°10.967 2°42.861 252.6 13 249 14.3
2004-04-29 08:20:58 51°10.959 2°42.829 252.6 13 249 14.3
2004-04-29 08:21:02 51°10.954 2°42.808 252.3 12.8 249 14.4
2004-04-29 08:21:07 51°10.947 2°42.782 251.9 12.9 247 14.4
2004-04-29 08:21:12 51°10.941 2°42.755 251.8 13 249 14.4
2004-04-29 08:21:18 51°10.932 2°42.723 252.6 12.9 248 14.2
2004-04-29 08:21:22 51°10.928 2°42.701 251.8 13 250 14.3
2004-04-29 08:21:28 51°10.92 2°42.669 252.7 12.9 249 14.4
2004-04-29 08:21:32 51°10.915 2°42.648 253.1 12.9 250 14.2
2004-04-29 08:21:38 51°10.907 2°42.616 252.4 12.9 249 14.3
2004-04-29 08:21:42 51°10.902 2°42.595 252.5 12.9 249 14.3
2004-04-29 08:21:47 51°10.896 2°42.569 252.7 12.9 249 14.2
2004-04-29 08:21:52 51°10.889 2°42.542 252.5 12.9 249 14.2
2004-04-29 08:21:58 51°10.882 2°42.51 252.3 12.9 250 14.3
2004-04-29 08:22:03 51°10.875 2°42.483 252.6 12.9 249 14.3
2004-04-29 08:22:08 51°10.869 2°42.457 252.4 12.9 249 14.2
2004-04-29 08:22:12 51°10.863 2°42.436 252.1 12.9 248 14.3
2004-04-29 08:22:18 51°10.855 2°42.404 251.1 13 247 14.3
2004-04-29 08:22:22 51°10.85 2°42.383 251.2 12.9 249 14.2
2004-04-29 08:22:27 51°10.843 2°42.357 251.6 12.8 247 14.2
2004-04-29 08:22:32 51°10.836 2°42.33 250.7 12.9 249 14.2
2004-04-29 08:22:37 51°10.83 2°42.304 251.1 12.9 247 14.2
2004-04-29 08:22:42 51°10.823 2°42.277 251.5 12.9 249 14.2
2004-04-29 08:22:48 51°10.815 2°42.246 251.4 12.9 247 14.2
2004-04-29 08:22:52 51°10.81 2°42.225 251 12.9 248 14.1
2004-04-29 08:22:58 51°10.802 2°42.193 251.4 12.8 248 14.2
2004-04-29 08:23:02 51°10.796 2°42.173 251 12.8 248 14.2
2004-04-29 08:23:08 51°10.788 2°42.141 251 12.8 248 14.1
2004-04-29 08:23:12 51°10.783 2°42.12 251.1 12.8 248 14.2
2004-04-29 08:23:18 51°10.775 2°42.089 251.8 12.8 249 14.2
2004-04-29 08:23:22 51°10.77 2°42.068 251.2 12.7 247 14.2
2004-04-29 08:23:27 51°10.763 2°42.042 251 12.8 248 14
2004-04-29 08:23:32 51°10.756 2°42.016 250.6 12.8 247 14.1
2004-04-29 08:23:37 51°10.75 2°41.989 251.3 12.8 249 14.2
2004-04-29 08:23:43 51°10.742 2°41.958 251.5 12.7 248 14.1
2004-04-29 08:23:47 51°10.737 2°41.937 251.8 12.7 248 14.2
2004-04-29 08:23:52 51°10.73 2°41.911 251.3 12.7 247 14.2
2004-04-29 08:23:58 51°10.722 2°41.88 250.7 12.7 248 14.2
2004-04-29 08:24:02 51°10.716 2°41.86 251 12.8 246 14.1
2004-04-29 08:24:07 51°10.71 2°41.833 250.4 12.7 249 14.2
2004-04-29 08:24:12 51°10.702 2°41.808 250.8 12.7 246 14.1
2004-04-29 08:24:18 51°10.695 2°41.777 250.8 12.7 249 14.1
2004-04-29 08:24:22 51°10.689 2°41.756 251.3 12.7 248 14.1
2004-04-29 08:24:28 51°10.681 2°41.725 251.2 12.7 248 14.2
2004-04-29 08:24:32 51°10.676 2°41.704 251.4 12.6 249 14.1
2004-04-29 08:24:38 51°10.668 2°41.673 252.2 12.6 248 14.1
2004-04-29 08:24:42 51°10.663 2°41.652 251.1 12.7 249 14.1
2004-04-29 08:24:48 51°10.655 2°41.621 251.5 12.7 248 14.1
2004-04-29 08:24:52 51°10.65 2°41.6 251.6 12.7 248 14.1
2004-04-29 08:24:58 51°10.642 2°41.569 251.5 12.7 249 14.1
2004-04-29 08:25:03 51°10.636 2°41.543 251.8 12.7 249 14.1
2004-04-29 08:25:08 51°10.629 2°41.517 251.8 12.7 248 14.2
2004-04-29 08:25:12 51°10.624 2°41.496 251.8 12.7 248 14
2004-04-29 08:25:18 51°10.616 2°41.465 251.4 12.8 249 14.1
2004-04-29 08:25:22 51°10.611 2°41.444 251.7 12.7 248 14.1
2004-04-29 08:25:27 51°10.604 2°41.418 251.7 12.7 249 14.1
2004-04-29 08:25:32 51°10.598 2°41.392 251.4 12.8 248 14.1
2004-04-29 08:25:37 51°10.591 2°41.366 251.2 12.8 248 14.1
2004-04-29 08:25:42 51°10.584 2°41.339 251.2 12.8 248 14.1
2004-04-29 08:25:48 51°10.577 2°41.308 251.1 12.8 248 14.1
2004-04-29 08:25:52 51°10.571 2°41.287 251.5 12.8 248 14.1
2004-04-29 08:25:58 51°10.564 2°41.255 251.6 12.8 248 14.1
2004-04-29 08:26:02 51°10.559 2°41.234 252.3 12.8 248 14.1
2004-04-29 08:26:08 51°10.551 2°41.202 252.1 12.9 250 14.1
2004-04-29 08:26:12 51°10.546 2°41.181 252.2 12.9 250 14.1
2004-04-29 08:26:18 51°10.539 2°41.149 253 12.8 250 14.1
2004-04-29 08:26:23 51°10.532 2°41.123 252.8 12.8 250 14.2
2004-04-29 08:26:27 51°10.527 2°41.102 252.4 12.8 250 14.1
2004-04-29 08:26:32 51°10.521 2°41.076 252.1 12.8 248 14.2
2004-04-29 08:26:37 51°10.514 2°41.049 251.8 12.7 249 14.2
2004-04-29 08:26:43 51°10.507 2°41.018 251.3 12.8 248 14.1
2004-04-29 08:26:47 51°10.502 2°40.997 251.7 12.8 249 14.2
2004-04-29 08:26:52 51°10.495 2°40.971 252.1 12.8 249 14.2
2004-04-29 08:26:58 51°10.488 2°40.939 252 12.8 249 14.2
2004-04-29 08:27:02 51°10.483 2°40.918 252.8 12.7 249 14.2
2004-04-29 08:27:08 51°10.476 2°40.887 252.6 12.7 249 14.2
2004-04-29 08:27:12 51°10.47 2°40.866 252.1 12.7 249 14.2
2004-04-29 08:27:18 51°10.463 2°40.834 251.8 12.7 249 14.2
2004-04-29 08:27:22 51°10.458 2°40.813 252.2 12.7 248 14.1
2004-04-29 08:27:28 51°10.45 2°40.782 251.8 12.8 250 14.2
2004-04-29 08:27:32 51°10.445 2°40.761 251.9 12.8 249 14.2
2004-04-29 08:27:38 51°10.438 2°40.729 251.9 12.7 250 14.2
2004-04-29 08:27:42 51°10.433 2°40.708 252.5 12.7 249 14.2
2004-04-29 08:27:47 51°10.427 2°40.681 252.8 12.8 250 14.2
2004-04-29 08:27:52 51°10.421 2°40.655 253.1 12.7 250 14.2
2004-04-29 08:27:57 51°10.415 2°40.629 252.7 12.7 250 14.2
2004-04-29 08:28:00 51°10.412 2°40.613 252.8 12.8 250 14.3
2004-04-29 08:28:08 51°10.402 2°40.57 252.8 12.8 250 14.2
2004-04-29 08:28:12 51°10.397 2°40.549 252.9 12.8 249 14.2
2004-04-29 08:28:18 51°10.39 2°40.518 252.5 12.8 249 14.3
2004-04-29 08:28:23 51°10.383 2°40.491 252.5 12.8 249 14.3
2004-04-29 08:28:27 51°10.378 2°40.47 252 12.8 249 14.3
2004-04-29 08:28:32 51°10.372 2°40.444 251.8 12.7 249 14.3
2004-04-29 08:28:37 51°10.366 2°40.417 251.8 12.8 249 14.4
2004-04-29 08:28:43 51°10.359 2°40.385 252.5 12.8 250 14.3
2004-04-29 08:28:48 51°10.353 2°40.359 253.3 12.8 251 14.3
2004-04-29 08:28:52 51°10.347 2°40.338 252.6 12.8 249 14.3
2004-04-29 08:28:58 51°10.34 2°40.306 252.4 12.8 250 14.4
2004-04-29 08:29:02 51°10.335 2°40.285 252.5 12.8 249 14.4
2004-04-29 08:29:08 51°10.327 2°40.254 251.6 12.8 249 14.4
2004-04-29 08:29:12 51°10.322 2°40.233 251.3 12.8 248 14.4
2004-04-29 08:29:18 51°10.314 2°40.201 251.2 12.8 248 14.5
2004-04-29 08:29:22 51°10.309 2°40.18 250.7 12.9 248 14.4
2004-04-29 08:29:28 51°10.301 2°40.148 251.5 12.8 249 14.5
2004-04-29 08:29:32 51°10.296 2°40.127 251.1 12.9 248 14.5
2004-04-29 08:29:38 51°10.288 2°40.096 251.4 12.9 250 14.4
2004-04-29 08:29:42 51°10.283 2°40.074 250.8 12.8 247 14.5
2004-04-29 08:29:47 51°10.277 2°40.048 251.9 12.8 250 14.5
2004-04-29 08:29:52 51°10.27 2°40.022 251.7 12.7 247 14.5
2004-04-29 08:29:57 51°10.263 2°39.996 250.7 12.8 249 14.6
2004-04-29 08:30:03 51°10.255 2°39.965 251.5 12.7 248 14.6
2004-04-29 08:30:07 51°10.25 2°39.944 250.9 12.8 248 14.7
2004-04-29 08:30:12 51°10.244 2°39.917 251.3 12.7 249 14.7
2004-04-29 08:30:18 51°10.236 2°39.886 250.9 12.8 248 14.7
2004-04-29 08:30:22 51°10.231 2°39.865 250.8 12.8 248 14.7
2004-04-29 08:30:27 51°10.224 2°39.839 250.9 12.8 249 14.7
2004-04-29 08:30:32 51°10.217 2°39.813 251.6 12.7 248 14.8
2004-04-29 08:30:38 51°10.21 2°39.781 250.9 12.8 249 14.7
2004-04-29 08:30:42 51°10.204 2°39.76 251.1 12.9 247 14.8
2004-04-29 08:30:47 51°10.198 2°39.734 251.4 12.8 250 14.8
2004-04-29 08:30:52 51°10.191 2°39.708 251.5 12.8 248 14.8
2004-04-29 08:30:58 51°10.184 2°39.676 251.1 12.8 248 14.9
2004-04-29 08:31:02 51°10.179 2°39.655 251.4 12.8 249 14.9
2004-04-29 08:31:08 51°10.171 2°39.624 252 12.7 249 14.8
2004-04-29 08:31:12 51°10.166 2°39.603 250.9 12.8 247 14.8
2004-04-29 08:31:18 51°10.158 2°39.571 251.4 12.8 250 15
2004-04-29 08:31:23 51°10.151 2°39.546 251.8 12.7 248 15
2004-04-29 08:31:28 51°10.145 2°39.52 250.6 12.7 247 14.9
2004-04-29 08:31:32 51°10.139 2°39.499 251 12.6 247 15
2004-04-29 08:31:38 51°10.131 2°39.468 250.2 12.6 247 15.1
2004-04-29 08:31:42 51°10.126 2°39.447 250 12.6 248 15
2004-04-29 08:31:48 51°10.118 2°39.417 250.6 12.6 248 15.1
2004-04-29 08:31:52 51°10.112 2°39.396 249.6 12.7 247 15.1
2004-04-29 08:31:57 51°10.106 2°39.371 250.3 12.6 248 15.2
2004-04-29 08:32:03 51°10.097 2°39.34 249.9 12.7 246 15.2
2004-04-29 08:32:06 51°10.093 2°39.324 249.2 12.7 247 15.2
2004-04-29 08:32:12 51°10.085 2°39.294 249.8 12.6 247 15.3
2004-04-29 08:32:18 51°10.077 2°39.263 249.8 12.6 248 15.2
2004-04-29 08:32:21 51°10.073 2°39.247 250.9 12.7 248 15.3
2004-04-29 08:32:27 51°10.066 2°39.216 251.7 12.7 250 15.3
2004-04-29 08:32:32 51°10.059 2°39.19 251.4 12.6 248 15.3
2004-04-29 08:32:38 51°10.052 2°39.159 251.6 12.7 249 15.3
2004-04-29 08:32:42 51°10.047 2°39.138 252.3 12.7 250 15.4
2004-04-29 08:32:48 51°10.04 2°39.106 252.3 12.7 249 15.4
2004-04-29 08:32:52 51°10.035 2°39.085 252.2 12.7 250 15.4
2004-04-29 08:32:58 51°10.027 2°39.054 252 12.7 249 15.5
2004-04-29 08:33:03 51°10.021 2°39.027 252.6 12.7 249 15.4
2004-04-29 08:33:07 51°10.016 2°39.006 252.5 12.7 250 15.4
2004-04-29 08:33:12 51°10.01 2°38.981 252.1 12.6 249 15.5
2004-04-29 08:33:17 51°10.004 2°38.954 251.2 12.7 248 15.5
2004-04-29 08:33:23 51°9.996 2°38.923 252.3 12.6 249 15.6
2004-04-29 08:33:28 51°9.99 2°38.897 252.3 12.6 249 15.6
2004-04-29 08:33:30 51°9.988 2°38.887 251.9 12.6 250 15.6
2004-04-29 08:33:38 51°9.978 2°38.845 252.6 12.6 249 15.7
2004-04-29 08:33:42 51°9.973 2°38.824 252 12.7 250 15.7
2004-04-29 08:33:48 51°9.966 2°38.793 252.2 12.7 250 15.7
2004-04-29 08:33:52 51°9.961 2°38.772 252.5 12.6 249 15.8
2004-04-29 08:33:58 51°9.953 2°38.74 252.4 12.7 249 15.8
2004-04-29 08:34:03 51°9.948 2°38.714 252.4 12.7 251 15.8
2004-04-29 08:34:08 51°9.941 2°38.688 252.9 12.7 249 15.8
2004-04-29 08:34:12 51°9.937 2°38.667 252.3 12.7 251 15.8
2004-04-29 08:34:17 51°9.93 2°38.641 252.9 12.6 249 15.8
2004-04-29 08:34:22 51°9.924 2°38.614 251.8 12.8 250 15.9
2004-04-29 08:34:28 51°9.916 2°38.583 252.7 12.7 250 15.9
2004-04-29 08:34:32 51°9.911 2°38.562 252.5 12.6 248 15.9
2004-04-29 08:34:38 51°9.904 2°38.531 251.1 12.7 248 16
2004-04-29 08:34:42 51°9.899 2°38.51 252 12.7 250 15.9
2004-04-29 08:34:48 51°9.892 2°38.478 252.5 12.7 250 16
2004-04-29 08:34:52 51°9.888 2°38.457 252 12.7 249 16
2004-04-29 08:34:58 51°9.881 2°38.426 252.5 12.8 251 16.1
2004-04-29 08:35:03 51°9.875 2°38.399 253.3 12.8 251 16.2
2004-04-29 08:35:07 51°9.87 2°38.378 253.3 12.6 250 16.2
2004-04-29 08:35:12 51°9.864 2°38.352 252.2 12.7 249 16.3
2004-04-29 08:35:17 51°9.857 2°38.325 252.7 12.7 251 16.3
2004-04-29 08:35:23 51°9.85 2°38.294 252.6 12.6 249 16.3
2004-04-29 08:35:27 51°9.845 2°38.273 251.8 12.6 249 16.3
2004-04-29 08:35:32 51°9.838 2°38.247 251.9 12.6 249 16.4
2004-04-29 08:35:37 51°9.832 2°38.221 251.6 12.6 249 16.4
2004-04-29 08:35:43 51°9.824 2°38.19 251.4 12.6 248 16.4
2004-04-29 08:35:48 51°9.817 2°38.164 251 12.6 248 16.4
2004-04-29 08:35:52 51°9.811 2°38.143 250.8 12.7 248 16.5
2004-04-29 08:35:58 51°9.803 2°38.112 251.1 12.7 249 16.5
2004-04-29 08:36:03 51°9.797 2°38.086 251.6 12.7 249 16.5
2004-04-29 08:36:07 51°9.791 2°38.065 251.4 12.7 248 16.5
2004-04-29 08:36:12 51°9.785 2°38.039 251.1 12.7 249 16.5
2004-04-29 08:36:18 51°9.777 2°38.007 251.3 12.7 249 16.6
2004-04-29 08:36:22 51°9.772 2°37.987 251.9 12.6 249 16.7
2004-04-29 08:36:27 51°9.766 2°37.961 251.8 12.7 248 16.7
2004-04-29 08:36:32 51°9.759 2°37.935 251.1 12.7 248 16.7
2004-04-29 08:36:37 51°9.753 2°37.909 251.4 12.6 249 16.7
2004-04-29 08:36:43 51°9.745 2°37.878 250.4 12.7 248 16.7
2004-04-29 08:36:48 51°9.739 2°37.852 250.5 12.7 249 16.7
2004-04-29 08:36:52 51°9.733 2°37.831 251.3 12.6 247 16.7
2004-04-29 08:36:58 51°9.726 2°37.8 250.9 12.6 248 16.8
2004-04-29 08:37:03 51°9.719 2°37.774 251 12.8 247 16.9
2004-04-29 08:37:08 51°9.714 2°37.748 251.6 12.7 251 16.9
2004-04-29 08:37:12 51°9.708 2°37.727 251.8 12.6 248 17
2004-04-29 08:37:18 51°9.701 2°37.696 251.4 12.7 251 17
2004-04-29 08:37:22 51°9.695 2°37.675 251.1 12.7 248 17
2004-04-29 08:37:27 51°9.69 2°37.649 251.3 12.7 250 17
2004-04-29 08:37:32 51°9.683 2°37.623 251.6 12.7 249 17.1
2004-04-29 08:37:36 51°9.678 2°37.602 251.4 12.7 249 17.2
2004-04-29 08:37:43 51°9.67 2°37.566 251.1 12.7 248 17.2
2004-04-29 08:37:47 51°9.664 2°37.545 250.6 12.7 247 17.2
2004-04-29 08:37:49 51°9.662 2°37.535 250.3 12.8 250 17.2
2004-04-29 08:37:57 51°9.651 2°37.493 250.9 12.7 248 17.2
2004-04-29 08:38:03 51°9.643 2°37.461 250.4 12.7 247 17.3
2004-04-29 08:38:08 51°9.636 2°37.436 249.7 12.8 247 17.4
2004-04-29 08:38:12 51°9.631 2°37.415 250 12.8 248 17.4
2004-04-29 08:38:18 51°9.622 2°37.384 249.5 12.7 246 17.3
2004-04-29 08:38:23 51°9.615 2°37.358 248.9 12.9 247 17.5
2004-04-29 08:38:26 51°9.611 2°37.342 249.5 12.8 247 17.3
2004-04-29 08:38:32 51°9.602 2°37.311 249.5 12.8 246 17.3
2004-04-29 08:38:38 51°9.594 2°37.28 249.2 12.8 247 17.4
2004-04-29 08:38:42 51°9.588 2°37.26 248.9 12.8 246 17.2
2004-04-29 08:38:48 51°9.58 2°37.229 248.5 12.8 246 17.4
2004-04-29 08:38:52 51°9.575 2°37.208 250.1 12.8 248 17.6
2004-04-29 08:38:58 51°9.567 2°37.177 250 12.8 248 17.6
2004-04-29 08:39:02 51°9.561 2°37.156 250.3 12.7 248 17.6
2004-04-29 08:39:08 51°9.553 2°37.125 250.3 12.8 247 17.7
2004-04-29 08:39:12 51°9.548 2°37.104 250.5 12.7 249 17.7
2004-04-29 08:39:18 51°9.54 2°37.073 250.8 12.7 247 17.6
2004-04-29 08:39:22 51°9.534 2°37.052 250.1 12.8 248 17.6
2004-04-29 08:39:28 51°9.527 2°37.02 251.1 12.7 249 17.7
2004-04-29 08:39:32 51°9.521 2°37 250.4 12.7 247 17.7
2004-04-29 08:39:38 51°9.513 2°36.968 250.6 12.7 247 17.7
2004-04-29 08:39:42 51°9.508 2°36.948 250.7 12.8 247 17.6
2004-04-29 08:39:47 51°9.501 2°36.921 250 12.8 248 17.6
2004-04-29 08:39:52 51°9.494 2°36.896 249.9 12.8 248 17.7
2004-04-29 08:39:58 51°9.486 2°36.864 250.4 12.8 247 17.7
2004-04-29 08:40:02 51°9.481 2°36.843 249.9 12.8 248 17.7
2004-04-29 08:40:08 51°9.472 2°36.813 250.1 12.8 247 17.6
2004-04-29 08:40:12 51°9.467 2°36.791 249.7 12.8 249 17.8
2004-04-29 08:40:18 51°9.459 2°36.76 250.6 12.8 249 17.6
2004-04-29 08:40:23 51°9.452 2°36.734 250.5 12.7 248 17.6
2004-04-29 08:40:28 51°9.445 2°36.708 250.3 12.8 246 17.6
2004-04-29 08:40:31 51°9.441 2°36.693 249.7 12.7 248 17.7
2004-04-29 08:40:38 51°9.431 2°36.657 250.1 12.8 246 17.5
2004-04-29 08:40:43 51°9.424 2°36.63 250 12.7 248 17.6
2004-04-29 08:40:48 51°9.417 2°36.605 250.1 12.7 246 17.6
2004-04-29 08:40:52 51°9.412 2°36.584 249.4 12.9 248 17.6
2004-04-29 08:40:58 51°9.404 2°36.552 250.5 12.8 248 17.5
2004-04-29 08:41:02 51°9.398 2°36.531 250.4 12.8 247 17.5
2004-04-29 08:41:08 51°9.39 2°36.5 250 12.9 247 17.5
2004-04-29 08:41:12 51°9.385 2°36.479 250.4 12.8 248 17.6
2004-04-29 08:41:16 51°9.379 2°36.458 250.4 12.9 247 17.5
2004-04-29 08:41:22 51°9.372 2°36.426 250.8 12.9 249 17.5
2004-04-29 08:41:28 51°9.363 2°36.395 251.1 12.8 248 17.4
2004-04-29 08:41:32 51°9.358 2°36.374 250.4 12.9 248 17.5
2004-04-29 08:41:37 51°9.351 2°36.347 250.4 12.9 248 17.5
2004-04-29 08:41:42 51°9.345 2°36.321 250.4 12.9 248 17.4
2004-04-29 08:41:48 51°9.336 2°36.29 250.5 12.8 247 17.6
2004-04-29 08:41:52 51°9.331 2°36.269 250.4 12.9 248 17.4
2004-04-29 08:41:58 51°9.323 2°36.237 250.5 12.8 248 17.5
2004-04-29 08:42:00 51°9.32 2°36.227 250.8 12.8 247 17.5
2004-04-29 08:42:08 51°9.309 2°36.185 250 12.9 247 17.5
2004-04-29 08:42:12 51°9.304 2°36.164 249.9 12.9 248 17.5
2004-04-29 08:42:18 51°9.296 2°36.132 250.3 12.9 248 17.5
2004-04-29 08:42:22 51°9.29 2°36.111 250.9 12.8 248 17.5
2004-04-29 08:42:28 51°9.282 2°36.08 250.9 12.8 248 17.6
2004-04-29 08:42:32 51°9.276 2°36.059 249.9 12.9 247 17.5
2004-04-29 08:42:38 51°9.268 2°36.028 250.4 12.9 248 17.7
2004-04-29 08:42:42 51°9.263 2°36.007 250 12.8 247 17.6
2004-04-29 08:42:48 51°9.255 2°35.975 250.2 12.9 248 17.6
2004-04-29 08:42:52 51°9.25 2°35.954 250.9 12.9 248 17.7
2004-04-29 08:42:58 51°9.241 2°35.923 251.4 12.9 249 17.7
2004-04-29 08:43:03 51°9.234 2°35.897 250.4 12.9 247 17.9
2004-04-29 08:43:08 51°9.228 2°35.87 249.9 13 248 17.8
2004-04-29 08:43:10 51°9.225 2°35.86 251 12.8 246 18.2
2004-04-29 08:43:18 51°9.214 2°35.818 250 12.9 247 17.8
2004-04-29 08:43:22 51°9.209 2°35.797 249.5 12.9 248 18.1
2004-04-29 08:43:28 51°9.2 2°35.766 249.6 12.9 246 17.9
2004-04-29 08:43:31 51°9.196 2°35.75 249.4 12.9 247 17.9
2004-04-29 08:43:38 51°9.186 2°35.714 249.6 12.8 246 17.9
2004-04-29 08:43:42 51°9.18 2°35.693 249 12.9 247 17.8
2004-04-29 08:43:48 51°9.172 2°35.662 249.2 12.9 247 18.1
2004-04-29 08:43:52 51°9.166 2°35.641 249.6 12.8 247 18.2
2004-04-29 08:43:58 51°9.157 2°35.61 249.7 12.8 245 18.2
2004-04-29 08:44:02 51°9.152 2°35.589 248.8 12.9 247 18
2004-04-29 08:44:07 51°9.144 2°35.564 249 12.8 246 18
2004-04-29 08:44:12 51°9.137 2°35.538 248.9 12.8 246 18
2004-04-29 08:44:16 51°9.132 2°35.517 248.9 12.8 246 17.9
2004-04-29 08:44:23 51°9.122 2°35.481 249.1 12.8 246 18.2
2004-04-29 08:44:27 51°9.116 2°35.46 249.1 12.8 247 18.2
2004-04-29 08:44:32 51°9.109 2°35.434 249.6 12.8 247 18.2
2004-04-29 08:44:38 51°9.101 2°35.403 249.6 12.8 249 17.9
2004-04-29 08:44:43 51°9.093 2°35.377 249.5 12.8 245 17.8
2004-04-29 08:44:47 51°9.088 2°35.356 248.7 12.9 248 18.1
2004-04-29 08:44:52 51°9.081 2°35.331 249.4 12.8 246 18.2
2004-04-29 08:44:56 51°9.075 2°35.31 249.6 12.8 248 17.9
2004-04-29 08:45:03 51°9.066 2°35.274 248.7 12.5 247 18
2004-04-29 08:45:06 51°9.062 2°35.26 249.6 11.6 248 17.9
2004-04-29 08:45:12 51°9.055 2°35.234 249.7 10.9 246 18
2004-04-29 08:45:18 51°9.049 2°35.211 249.9 10 247 18.1
2004-04-29 08:45:22 51°9.045 2°35.196 249.8 9.1 248 18.3
2004-04-29 08:45:27 51°9.04 2°35.179 249.6 8.6 246 18.1
2004-04-29 08:45:32 51°9.036 2°35.163 249.5 8.1 247 18.3
2004-04-29 08:45:38 51°9.031 2°35.145 248.9 7.5 245 18.1
2004-04-29 08:45:42 51°9.027 2°35.134 248.3 7 245 18.5
2004-04-29 08:45:48 51°9.023 2°35.118 248.2 6.7 246 18.6
2004-04-29 08:45:52 51°9.02 2°35.109 247.6 6.2 243 18.4
2004-04-29 08:45:58 51°9.016 2°35.095 246.9 6.2 243 17.9
2004-04-29 08:46:03 51°9.012 2°35.085 246.2 5.7 243 18.2
2004-04-29 08:46:07 51°9.009 2°35.077 245.3 5.1 241 18.4
2004-04-29 08:46:12 51°9.006 2°35.068 244.4 4.9 241 18.5
2004-04-29 08:46:17 51°9.003 2°35.06 243.8 4.5 240 18.4
2004-04-29 08:46:23 51°9 2°35.05 243.6 4.2 241 18.2
2004-04-29 08:46:27 51°8.997 2°35.044 243 4 238 18.6
2004-04-29 08:46:32 51°8.994 2°35.038 242.3 3.7 239 18
2004-04-29 08:46:37 51°8.992 2°35.033 241.2 2.9 235 18.6
2004-04-29 08:46:43 51°8.99 2°35.029 238 2.1 226 18
2004-04-29 08:46:48 51°8.989 2°35.027 233.4 1.4 224 18.2
2004-04-29 08:46:52 51°8.988 2°35.027 228 0.6 211 18.4
2004-04-29 08:46:58 51°8.988 2°35.027 222.6 0.4 160 18.5
2004-04-29 08:47:02 51°8.988 2°35.028 219.4 0.2 50 18.5
2004-04-29 08:47:07 51°8.989 2°35.029 218 0.6 64 18.4
2004-04-29 08:47:12 51°8.99 2°35.031 216.6 0.8 46 18.1
2004-04-29 08:47:18 51°8.991 2°35.032 215.2 0.9 51 18
2004-04-29 08:47:23 51°8.991 2°35.034 213.4 0.9 47 18.4
2004-04-29 08:47:28 51°8.992 2°35.035 211.6 0.9 53 18.7
2004-04-29 08:47:32 51°8.993 2°35.037 209.9 0.9 52 18.6
2004-04-29 08:47:38 51°8.994 2°35.038 207.9 0.9 53 18.4
2004-04-29 08:47:42 51°8.994 2°35.039 206.5 0.8 51 18.4
2004-04-29 08:47:48 51°8.995 2°35.041 205.2 0.8 53 -999
2004-04-29 08:47:54 51°8.996 2°35.043 203.9 0.8 51 -999
2004-04-29 08:47:58 51°8.996 2°35.044 202.6 0.8 55 5.5
2004-04-29 08:48:03 51°8.997 2°35.045 201.8 0.8 55 -999
2004-04-29 08:48:08 51°8.997 2°35.047 201 0.7 56 -999
2004-04-29 08:48:14 51°8.998 2°35.048 200.3 0.7 57 -999
2004-04-29 08:48:18 51°8.998 2°35.049 199.5 0.7 55 -999
2004-04-29 08:48:23 51°8.999 2°35.05 198.8 0.7 56 -999
2004-04-29 08:48:28 51°9 2°35.052 198.3 0.7 59 -999
2004-04-29 08:48:34 51°9 2°35.053 198.1 0.7 58 -999
2004-04-29 08:48:38 51°9 2°35.054 197.6 0.7 60 -999
2004-04-29 08:48:43 51°9.001 2°35.056 197.3 0.7 58 -999
2004-04-29 08:48:48 51°9.001 2°35.057 196.9 0.7 62 -999
2004-04-29 08:48:53 51°9.002 2°35.058 196.8 0.6 62 -999
2004-04-29 08:48:58 51°9.002 2°35.06 196.6 0.6 63 18.7
2004-04-29 08:49:03 51°9.002 2°35.061 196.4 0.6 67 18.5
2004-04-29 08:49:08 51°9.003 2°35.062 196.3 0.6 67 18.4
2004-04-29 08:49:12 51°9.003 2°35.063 196.3 0.5 82 18.2
2004-04-29 08:49:18 51°9.003 2°35.064 196.4 0.5 85 18.1
2004-04-29 08:49:22 51°9.003 2°35.065 196.6 0.5 92 17.9
2004-04-29 08:49:27 51°9.003 2°35.066 196.7 0.5 99 18.3
2004-04-29 08:49:32 51°9.002 2°35.067 197 0.5 109 18.2
2004-04-29 08:49:38 51°9.002 2°35.068 197.4 0.5 116 18.5
2004-04-29 08:49:42 51°9.002 2°35.069 197.7 0.6 122 5.5
2004-04-29 08:49:48 51°9.002 2°35.07 198.1 0.5 130 5.7
2004-04-29 08:49:52 51°9.001 2°35.071 198.5 0.6 133 5.7
2004-04-29 08:49:57 51°9 2°35.072 198.8 0.6 135 18.5
2004-04-29 08:50:03 51°8.999 2°35.073 199.5 0.7 144 18.4
2004-04-29 08:50:08 51°8.998 2°35.074 199.9 0.7 148 18.5
2004-04-29 08:50:12 51°8.997 2°35.074 200.4 0.7 146 6.2
2004-04-29 08:50:18 51°8.996 2°35.075 201 0.7 154 5.4
2004-04-29 08:50:23 51°8.995 2°35.076 201.6 0.8 157 8
2004-04-29 08:50:28 51°8.994 2°35.077 202.1 0.8 155 18.3
2004-04-29 08:50:32 51°8.993 2°35.077 202.7 0.9 159 18.4
2004-04-29 08:50:37 51°8.992 2°35.078 203.2 0.9 158 18.5
2004-04-29 08:50:43 51°8.991 2°35.079 203.6 0.9 164 18.5
2004-04-29 08:50:48 51°8.99 2°35.079 204 0.9 163 18.6
2004-04-29 08:50:52 51°8.989 2°35.08 204.5 0.9 164 18.5
2004-04-29 08:50:58 51°8.987 2°35.08 205 1 168 18.2
2004-04-29 08:51:02 51°8.986 2°35.08 205.5 1 173 18
2004-04-29 08:51:07 51°8.985 2°35.081 206.2 1.1 173 18.2
2004-04-29 08:51:12 51°8.983 2°35.081 207.1 1.2 177 18.3
2004-04-29 08:51:18 51°8.981 2°35.081 207.9 1.3 180 18.2
2004-04-29 08:51:22 51°8.979 2°35.081 208.8 1.3 184 18.1
2004-04-29 08:51:28 51°8.977 2°35.08 210 1.4 184 18.2
2004-04-29 08:51:32 51°8.975 2°35.08 211.5 1.5 189 18.4
2004-04-29 08:51:38 51°8.973 2°35.079 212.9 1.5 191 18.2
2004-04-29 08:51:42 51°8.971 2°35.078 214.1 1.5 193 18.2
2004-04-29 08:51:48 51°8.969 2°35.077 215.4 1.6 197 18.3
2004-04-29 08:51:52 51°8.967 2°35.076 216.8 1.6 196 18.2
2004-04-29 08:51:57 51°8.965 2°35.075 218.3 1.6 200 18.1
2004-04-29 08:52:03 51°8.962 2°35.073 219.8 1.6 201 18.1
2004-04-29 08:52:08 51°8.96 2°35.072 221.1 1.6 204 18.2
2004-04-29 08:52:12 51°8.959 2°35.071 222.5 1.6 207 18.3
2004-04-29 08:52:18 51°8.956 2°35.069 224.2 1.6 207 18.1
2004-04-29 08:52:22 51°8.955 2°35.067 225.8 1.6 211 18.3
2004-04-29 08:52:28 51°8.952 2°35.065 227.1 1.7 212 18.4
2004-04-29 08:52:32 51°8.951 2°35.063 228.8 1.7 216 18.1
2004-04-29 08:52:38 51°8.949 2°35.06 230.4 1.7 216 18.2
2004-04-29 08:52:42 51°8.947 2°35.058 232.3 1.7 223 18.2
2004-04-29 08:52:48 51°8.945 2°35.055 234.2 1.7 223 18
2004-04-29 08:52:52 51°8.944 2°35.052 235.8 1.7 223 18.3
2004-04-29 08:52:58 51°8.942 2°35.049 237.8 1.7 226 18.4
2004-04-29 08:53:02 51°8.94 2°35.047 239.6 1.7 230 18.3
2004-04-29 08:53:08 51°8.939 2°35.043 241.5 1.8 232 18.1
2004-04-29 08:53:12 51°8.938 2°35.04 243.1 1.8 239 18.4
2004-04-29 08:53:18 51°8.936 2°35.037 244.8 1.8 237 18.3
2004-04-29 08:53:23 51°8.935 2°35.033 246.8 1.8 242 18.3
2004-04-29 08:53:28 51°8.934 2°35.03 248.4 1.8 244 18.2
2004-04-29 08:53:32 51°8.933 2°35.027 250.4 1.8 248 18.2
2004-04-29 08:53:38 51°8.932 2°35.022 252.4 1.8 249 18.2
2004-04-29 08:53:42 51°8.931 2°35.019 254.4 1.8 252 18.4
2004-04-29 08:53:48 51°8.93 2°35.014 256.2 1.8 254 18.1
2004-04-29 08:53:52 51°8.93 2°35.011 257.7 1.9 255 18.2
2004-04-29 08:53:58 51°8.929 2°35.006 259.6 1.9 259 18.1
2004-04-29 08:54:03 51°8.929 2°35.002 261 1.9 261 18.2
2004-04-29 08:54:08 51°8.929 2°34.998 263.4 1.9 262 18.1
2004-04-29 08:54:12 51°8.929 2°34.995 265.4 1.9 267 18.3
2004-04-29 08:54:18 51°8.928 2°34.989 267.2 1.9 268 18.3
2004-04-29 08:54:22 51°8.929 2°34.986 269.4 1.9 271 18.5
2004-04-29 08:54:28 51°8.929 2°34.981 271.3 1.9 275 18
2004-04-29 08:54:31 51°8.929 2°34.978 273.1 2 276 18.2
2004-04-29 08:54:38 51°8.93 2°34.972 275.2 2 278 18.4
2004-04-29 08:54:43 51°8.93 2°34.968 276.6 2 282 18.1
2004-04-29 08:54:48 51°8.931 2°34.964 278.7 1.9 283 18.3
2004-04-29 08:54:52 51°8.931 2°34.961 280.6 2 285 18.4
2004-04-29 08:54:58 51°8.932 2°34.955 282.1 2 285 18.4
2004-04-29 08:55:02 51°8.933 2°34.952 283.1 2 288 18.4
2004-04-29 08:55:08 51°8.934 2°34.947 283.8 2 287 18.5
2004-04-29 08:55:12 51°8.935 2°34.944 284.3 2 290 18.3
2004-04-29 08:55:16 51°8.935 2°34.94 284.7 2 288 18.4
2004-04-29 08:55:22 51°8.937 2°34.935 285 2 290 18.4
2004-04-29 08:55:28 51°8.938 2°34.93 285.2 2 290 18.4
2004-04-29 08:55:32 51°8.939 2°34.927 285.2 2.1 289 18.6
2004-04-29 08:55:38 51°8.94 2°34.922 285.4 2.1 290 18.2
2004-04-29 08:55:42 51°8.941 2°34.918 285.4 2.1 290 17.9
2004-04-29 08:55:48 51°8.942 2°34.913 285.3 2.1 290 18
2004-04-29 08:55:52 51°8.943 2°34.91 285.2 2.1 290 18.3
2004-04-29 08:55:58 51°8.944 2°34.905 285.1 2.1 290 18.5
2004-04-29 08:56:03 51°8.945 2°34.9 284.7 2.1 291 18.5
2004-04-29 08:56:07 51°8.946 2°34.897 284.5 2.1 290 18.1
2004-04-29 08:56:12 51°8.947 2°34.892 284.3 2.1 288 18
2004-04-29 08:56:18 51°8.948 2°34.887 284.2 2.1 291 18.6
2004-04-29 08:56:22 51°8.949 2°34.884 284.2 2.1 289 18
2004-04-29 08:56:28 51°8.95 2°34.878 284.1 2.1 288 18.4
2004-04-29 08:56:32 51°8.95 2°34.875 284 2.1 288 18.7
2004-04-29 08:56:38 51°8.952 2°34.87 283.9 2.1 288 18.4
2004-04-29 08:56:42 51°8.952 2°34.866 283.6 2 287 17.9
2004-04-29 08:56:48 51°8.953 2°34.861 283 2.1 287 18.1
2004-04-29 08:56:52 51°8.954 2°34.858 282.3 2.1 286 18.3
2004-04-29 08:56:58 51°8.955 2°34.853 281.3 2.1 283 18.6
2004-04-29 08:57:02 51°8.955 2°34.849 280.4 2.1 284 18.6
2004-04-29 08:57:08 51°8.956 2°34.844 280 2.1 281 18
2004-04-29 08:57:12 51°8.956 2°34.84 279 2.1 283 18.3
2004-04-29 08:57:18 51°8.957 2°34.835 278.3 2.1 280 18.8
2004-04-29 08:57:23 51°8.957 2°34.83 277.7 2.1 280 18.5
2004-04-29 08:57:28 51°8.958 2°34.826 277.2 2.1 280 18.1
2004-04-29 08:57:32 51°8.958 2°34.822 276.9 2.1 282 18.4
2004-04-29 08:57:38 51°8.959 2°34.817 276.5 2.1 278 18.7
2004-04-29 08:57:42 51°8.959 2°34.813 276.4 2.1 278 18.2
2004-04-29 08:57:47 51°8.959 2°34.809 276.1 2.1 278 18.4
2004-04-29 08:57:52 51°8.96 2°34.804 275.8 2.1 279 18.6
2004-04-29 08:57:56 51°8.96 2°34.8 275.6 2.1 277 18.4
2004-04-29 08:58:03 51°8.961 2°34.794 275.4 2.1 278 18.2
2004-04-29 08:58:06 51°8.961 2°34.791 275.4 2.2 279 18.2
2004-04-29 08:58:12 51°8.962 2°34.785 275.4 2.2 280 18.5
2004-04-29 08:58:18 51°8.962 2°34.779 275.7 2.2 279 18.8
2004-04-29 08:58:23 51°8.963 2°34.774 276.1 2.2 280 18
2004-04-29 08:58:27 51°8.963 2°34.77 276.5 2.3 281 18.3
2004-04-29 08:58:32 51°8.964 2°34.765 276.8 2.2 279 18.7
2004-04-29 08:58:38 51°8.964 2°34.76 277.1 2.2 279 18.1
2004-04-29 08:58:42 51°8.965 2°34.756 277.1 2.3 278 18.1
2004-04-29 08:58:48 51°8.965 2°34.75 277.1 2.3 279 18.4
2004-04-29 08:58:52 51°8.966 2°34.746 276.6 2.3 281 18.4
2004-04-29 08:58:58 51°8.966 2°34.74 276.2 2.3 278 18.6
2004-04-29 08:59:03 51°8.967 2°34.734 275.6 2.3 278 18
2004-04-29 08:59:08 51°8.967 2°34.729 275.2 2.3 277 18
2004-04-29 08:59:12 51°8.968 2°34.725 275 2.3 279 18.4
2004-04-29 08:59:18 51°8.968 2°34.719 274.6 2.3 277 18.4
2004-04-29 08:59:22 51°8.968 2°34.715 274.3 2.3 276 18.3
2004-04-29 08:59:28 51°8.969 2°34.709 273.8 2.4 278 18.6
2004-04-29 08:59:32 51°8.969 2°34.705 273.6 2.3 276 18.3
2004-04-29 08:59:38 51°8.97 2°34.699 272.9 2.4 278 17.8
2004-04-29 08:59:43 51°8.97 2°34.694 272.5 2.3 276 18.1
2004-04-29 08:59:48 51°8.97 2°34.689 271.8 2.3 277 18.6
2004-04-29 08:59:52 51°8.971 2°34.685 271.5 2.3 275 18.2
2004-04-29 08:59:58 51°8.971 2°34.678 271 2.3 275 18.5
2004-04-29 09:00:03 51°8.971 2°34.673 270.6 2.3 273 18.7
2004-04-29 09:00:07 51°8.971 2°34.669 270 2.3 274 18.3
2004-04-29 09:00:12 51°8.971 2°34.664 269.2 2.3 273 18.4
2004-04-29 09:00:22 51°8.972 2°34.654 267.6 2.3 269 18.4
2004-04-29 09:00:30 51°8.972 2°34.646 266.9 2.3 272 18.2
2004-04-29 09:00:34 51°8.972 2°34.642 265.9 2.3 270 18.1
2004-04-29 09:00:40 51°8.971 2°34.636 265.3 2.3 269 18.4
2004-04-29 09:00:44 51°8.971 2°34.632 264.7 2.3 267 17.9
2004-04-29 09:00:50 51°8.971 2°34.626 264.1 2.2 266 18.1
2004-04-29 09:00:55 51°8.971 2°34.621 263.2 2.2 265 18.5
2004-04-29 09:00:59 51°8.971 2°34.618 262.4 2.2 265 17.9
2004-04-29 09:01:04 51°8.97 2°34.613 261.8 2.2 264 18.4
2004-04-29 09:01:09 51°8.97 2°34.608 261.1 2.2 263 18.2
2004-04-29 09:01:15 51°8.97 2°34.602 260.5 2.2 263 18.1
2004-04-29 09:01:19 51°8.969 2°34.599 260.3 2.2 262 17.9
2004-04-29 09:01:24 51°8.969 2°34.594 259.8 2.2 261 17.9
2004-04-29 09:01:29 51°8.968 2°34.589 259.6 2.2 263 17.9
2004-04-29 09:01:35 51°8.968 2°34.583 259.4 2.2 262 18.2
2004-04-29 09:01:39 51°8.967 2°34.58 259.1 2.1 261 18.5
2004-04-29 09:01:44 51°8.967 2°34.575 259 2.2 262 17.8
2004-04-29 09:01:49 51°8.967 2°34.57 258.6 2.2 262 17.7
2004-04-29 09:01:54 51°8.966 2°34.566 258.3 2.2 261 17.9
2004-04-29 09:01:59 51°8.965 2°34.561 258.1 2.2 261 18.3
2004-04-29 09:02:04 51°8.965 2°34.556 257.8 2.2 260 17.4
2004-04-29 09:02:10 51°8.964 2°34.551 257.6 2.1 258 17.5
2004-04-29 09:02:15 51°8.964 2°34.546 257.6 2.2 260 18
2004-04-29 09:02:19 51°8.963 2°34.542 257.3 2.2 260 18.3
2004-04-29 09:02:25 51°8.962 2°34.536 257.2 2.2 261 17.6
2004-04-29 09:02:30 51°8.962 2°34.532 257.1 2.2 261 17.8
2004-04-29 09:02:34 51°8.962 2°34.528 257.1 2.2 260 17.6
2004-04-29 09:02:40 51°8.961 2°34.522 257.1 2.2 258 17.6
2004-04-29 09:02:44 51°8.961 2°34.518 256.9 2.2 259 17.9
2004-04-29 09:02:50 51°8.96 2°34.513 256.7 2.1 259 18
2004-04-29 09:02:55 51°8.959 2°34.508 256.4 2.1 258 17.5
2004-04-29 09:02:59 51°8.959 2°34.504 256.4 2.1 258 18
2004-04-29 09:03:04 51°8.958 2°34.5 256.2 2.2 259 17.6
2004-04-29 09:03:10 51°8.958 2°34.494 255.9 2.1 258 17.5
2004-04-29 09:03:15 51°8.957 2°34.489 255.7 2.2 257 17.9
2004-04-29 09:03:18 51°8.957 2°34.487 255.4 2.1 257 18
2004-04-29 09:03:25 51°8.956 2°34.48 255.2 2.1 257 17.4
2004-04-29 09:03:29 51°8.955 2°34.476 254.9 2.2 257 17.5
2004-04-29 09:03:34 51°8.955 2°34.472 254.7 2.1 256 17.7
2004-04-29 09:03:39 51°8.954 2°34.467 254.5 2.2 258 17.8
2004-04-29 09:03:44 51°8.953 2°34.463 254.1 2.2 256 17.3
2004-04-29 09:03:50 51°8.952 2°34.457 254 2.2 256 17.4
2004-04-29 09:03:54 51°8.951 2°34.453 253.9 2.2 257 17.6
2004-04-29 09:03:59 51°8.95 2°34.449 253.5 2.1 256 18
2004-04-29 09:04:05 51°8.95 2°34.443 253.3 2.1 256 18
2004-04-29 09:04:10 51°8.949 2°34.439 253.1 2.2 256 17.5
2004-04-29 09:04:15 51°8.948 2°34.434 252.8 2.1 256 17.7
2004-04-29 09:04:19 51°8.948 2°34.431 252.6 2.2 254 18
2004-04-29 09:04:23 51°8.947 2°34.427 252.5 2.1 254 17.8
2004-04-29 09:04:30 51°8.946 2°34.421 252.2 2.1 253 17.4
2004-04-29 09:04:34 51°8.946 2°34.418 252.1 2.1 254 18
2004-04-29 09:04:38 51°8.945 2°34.414 251.9 2.2 254 17.5
2004-04-29 09:04:44 51°8.944 2°34.408 251.6 2.1 254 17.8
2004-04-29 09:04:50 51°8.943 2°34.403 251.3 2.1 254 17.9
2004-04-29 09:04:55 51°8.942 2°34.398 251.3 2.2 254 17.7
2004-04-29 09:05:00 51°8.942 2°34.394 251.2 2.1 253 17.5
2004-04-29 09:05:05 51°8.941 2°34.389 251.1 2.2 254 17.7
2004-04-29 09:05:09 51°8.94 2°34.386 250.8 2.1 253 18
2004-04-29 09:05:15 51°8.939 2°34.38 250.7 2.2 253 17.7
2004-04-29 09:05:20 51°8.938 2°34.376 250.6 2.1 253 17.4
2004-04-29 09:05:24 51°8.937 2°34.373 250.4 2.1 253 17.5
2004-04-29 09:05:30 51°8.936 2°34.367 250.4 2.2 252 17.7
2004-04-29 09:05:35 51°8.935 2°34.363 250.3 2.1 251 18
2004-04-29 09:05:39 51°8.934 2°34.359 249.8 2.1 251 17.6
2004-04-29 09:05:43 51°8.933 2°34.356 249 2.1 251 17.4
2004-04-29 09:05:50 51°8.932 2°34.349 248.8 2.1 247 17.4
2004-04-29 09:05:54 51°8.931 2°34.346 248.3 2.1 249 17.8
2004-04-29 09:05:59 51°8.93 2°34.342 247.7 2.1 246 17.9
2004-04-29 09:06:05 51°8.928 2°34.337 247.2 2.2 248 17.4